Effective Sunday, March 17, 2024, the National Weather Service National Data Buoy Center will discontinue its Dial-A-Buoy Interactive Voice Response system. For more information, see Service Change Notice 24-06 (PDF).

Station BDRN4 - 8539094 - Burlington, Delaware River, NJ Image indicating link to RSS feed of recent meteorological observations for station BDRN4


Conditions at BDRN4 as of
(4:36 pm EST)
2136 GMT on 02/27/2024:
     

Click on the graph icon in the table below to see a time series plot of the last five days of that observation.

5-day plot - Wind Direction Wind Direction (WDIR):SSW ( 210 deg true )
5-day plot - Wind Speed Wind Speed (WSPD):5.1 m/s
5-day plot - Wind Gust Wind Gust (GST):7.7 m/s
5-day plot - Atmospheric Pressure Atmospheric Pressure (PRES):1010.5 mb
5-day plot - Air Temperature Air Temperature (ATMP): 18.0 °C
5-day plot - Water Temperature Water Temperature (WTMP): 5.0 °C
5-day plot - Wind Speed at 10 Meters Wind Speed at 10 meters (WSPD10M): 5 m/s
5-day plot - Wind Speed at 20 Meters Wind Speed at 20 meters (WSPD20M): 6 m/s
5-day plot -  Wind Speed, Wind Gust and Atmospheric Pressure Combined plot of Wind Speed, Gust, and Air Pressure
NOS Water Level Observation Network Water Level
Previous observations
TIME
(EST)
5-day plot - Wind Direction
WDIR
 
5-day plot - Wind Speed
WSPD
m/s
5-day plot - Wind Gust
GST
m/s
5-day plot - Wave Height
WVHT
m
5-day plot - Dominant Wave Period
DPD
sec
5-day plot - Average Wave Period
APD
sec
5-day plot - Mean Wave Direction
MWD
 
5-day plot - Atmospheric Pressure
PRES
mb
5-day plot - Pressure Tendency
PTDY
mb
5-day plot - Air Temperature
ATMP
°C
5-day plot - Water Temperature
WTMP
°C
5-day plot - Dew Point
DEWP
°C
5-day plot - Salinity
SAL
psu
5-day plot - Visibility
VIS
km
5-day plot - Tide (above MLLW)
TIDE
m
2024-02-27 04:30 pmSSW 5.1 8.2----1010.3- 18.2 5.0----
2024-02-27 04:24 pm S 5.1 9.3----1010.2- 18.4 5.0----
2024-02-27 04:18 pm S 4.6 8.8----1010.0- 18.4 5.0----
2024-02-27 04:12 pm S 5.7 8.8----1010.2- 18.5 5.0----
2024-02-27 04:06 pmSSW 4.6 7.2----1010.4- 18.5 5.0----
2024-02-27 04:00 pmSSW 2.6 6.7----1010.5 -2.4 18.4 5.0----
2024-02-27 03:54 pmSSW 4.6 7.7----1010.6- 18.5 5.0----
2024-02-27 03:48 pmSSW 6.2 8.8----1010.6- 18.3 5.0----
2024-02-27 03:42 pmSSW 4.6 7.2----1010.7- 18.4 5.0----
2024-02-27 03:36 pmSSW 5.1 6.7----1010.7- 18.6 5.0----
2024-02-27 03:30 pmSSW 4.1 7.7----1010.7- 18.7 5.0----
2024-02-27 03:24 pmSSW 5.7 9.8----1010.8- 18.6 5.0----
2024-02-27 03:18 pmSSW 5.7 9.8----1011.0- 18.6 5.0----
2024-02-27 03:12 pmSSW 6.2 9.8----1011.0- 18.6 5.0----
2024-02-27 03:06 pmSSW 6.2 9.3----1011.0- 18.7 5.0----
2024-02-27 03:00 pmSSW 4.6 7.2----1011.1 -2.0 18.8 5.0----
2024-02-27 02:54 pmSSW 6.7 9.3----1011.3- 18.7 5.0----
2024-02-27 02:48 pmSSW 6.2 9.3----1011.4- 18.7 5.0----
2024-02-27 02:42 pmSSW 5.7 9.3----1011.4- 18.7 5.0----
2024-02-27 02:36 pmSSW 5.1 7.2----1011.5- 18.8 5.0----
2024-02-27 02:30 pm SW 4.1 6.2----1011.7- 18.8 5.0----
2024-02-27 02:24 pmSSW 4.6 9.3----1011.8- 18.8 5.0----
2024-02-27 02:18 pmSSW 5.1 8.2----1012.0- 18.9 5.0----
2024-02-27 02:12 pmSSW 4.6 7.2----1012.0- 18.8 4.9----
2024-02-27 02:06 pm SW 4.1 8.8----1012.1- 18.8 4.9----
2024-02-27 02:00 pmSSW 3.6 6.7----1012.3 -2.1 18.9 4.9----
2024-02-27 01:54 pm SW 3.6 6.2----1012.2- 18.7 4.9----
2024-02-27 01:48 pmSSW 5.7 8.2----1012.3- 18.8 4.9----
2024-02-27 01:42 pmSSW 5.1 7.2----1012.5- 18.7 4.9----
2024-02-27 01:36 pmSSW 5.1 7.2----1012.6- 18.8 4.9----
2024-02-27 01:30 pm S 5.1 8.2----1012.6- 18.7 4.9----
2024-02-27 01:24 pmSSW 5.7 7.2----1012.8- 18.7 4.9----
2024-02-27 01:18 pm S 5.7 7.2----1012.9- 18.6 4.9----
2024-02-27 01:12 pm SW 3.6 8.2----1013.0- 18.6 4.9----
2024-02-27 01:06 pmSSW 4.6 7.2----1013.0- 18.7 4.9----
2024-02-27 01:00 pmSSW 5.1 6.7----1012.9 -2.5 18.6 4.9----
2024-02-27 12:54 pm SW 3.1 6.2----1012.9- 18.4 4.9----
2024-02-27 12:48 pmSSW 3.1 5.7----1012.9- 18.3 4.9----
2024-02-27 12:42 pm S 2.6 6.2----1012.9- 17.9 4.9----
2024-02-27 12:36 pmSSW 3.1 5.7----1012.9- 17.9 4.9----
2024-02-27 12:30 pmSSE 1.5 4.1----1013.1- 17.2 4.9----
2024-02-27 12:24 pm S 3.6 4.6----1013.3- 16.9 4.9----
2024-02-27 12:18 pm S 3.6 4.6----1013.4- 16.5 4.9----
2024-02-27 12:12 pmSSW 3.1 5.1----1013.5- 16.5 4.9----
2024-02-27 12:06 pm S 4.1 6.2----1013.2- 16.2 4.9----
2024-02-27 12:00 pmSSE 2.6 4.6----1013.1 -2.6 15.7 4.9----
2024-02-27 11:54 am S 3.1 4.6----1013.2- 15.2 4.9----
2024-02-27 11:48 amSSE 2.6 4.6----1013.5- 15.3 4.9----
2024-02-27 11:42 amSSE 2.6 4.1----1013.6- 14.7 4.9----
2024-02-27 11:36 am SE 3.6 5.7----1013.6- 14.6 4.9----
2024-02-27 11:30 am SE 2.6 3.6----1013.6- 14.2 4.9----
2024-02-27 11:24 am- 0.0 1.0----1013.8- 14.3 4.8----
2024-02-27 11:18 am SW 1.0 4.1----1013.9- 13.8 4.8----
2024-02-27 11:12 am S 2.6 3.6----1014.1- 13.6 4.8----
2024-02-27 11:06 amSSE 3.1 3.6----1014.3- 13.5 4.8----
2024-02-27 11:00 am S 2.1 3.6----1014.4 -1.6 12.9 4.8----
2024-02-27 10:54 am- 0.0 1.0----1014.6- 13.0 4.8----
2024-02-27 10:48 am- 0.0 1.0----1014.6- 12.5 4.8----
2024-02-27 10:42 amWNW 0.5 1.0----1014.6- 12.3 4.8----
2024-02-27 10:36 amWNW 0.5 1.0----1014.8- 11.8 4.8----
2024-02-27 10:30 am- 0.0 1.0----1014.9- 11.5 4.8----
2024-02-27 10:24 amESE 0.5 2.1----1015.0- 11.0 4.8----
2024-02-27 10:18 am NW 0.5 1.0----1015.0- 10.3 4.8----
2024-02-27 10:12 am- 0.0 1.0----1015.1- 10.1 4.8----
2024-02-27 10:06 am- 0.0 1.0----1015.3- 9.7 4.8----
2024-02-27 10:00 am- 0.0 1.0----1015.4 -0.7 9.6 4.8----
2024-02-27 09:54 amENE 0.5 1.0----1015.5- 9.6 4.8----
2024-02-27 09:48 am NE 1.0 1.5----1015.4- 9.2 4.8----
2024-02-27 09:42 amENE 1.0 1.5----1015.6- 8.6 4.8----
2024-02-27 09:36 am E 1.0 2.1----1015.6- 8.6 4.8----
2024-02-27 09:30 am E 1.5 2.1----1015.6- 8.6 4.8----
2024-02-27 09:24 am E 1.5 2.1----1015.7- 8.2 4.8----
2024-02-27 09:18 am E 1.5 2.1----1015.8- 7.9 4.8----
2024-02-27 09:12 am E 1.5 2.1----1015.8- 7.6 4.8----
2024-02-27 09:06 am E 2.1 2.1----1015.7- 7.0 4.8----
2024-02-27 09:00 amESE 2.1 2.6----1015.7 +0.0 6.9 4.8----
2024-02-27 08:54 am E 2.1 3.1----1015.6- 7.1 4.8----
2024-02-27 08:48 amENE 2.6 3.1----1015.7- 6.8 4.8----
2024-02-27 08:42 amENE 2.6 3.1----1015.8- 6.4 4.8----
2024-02-27 08:36 am E 2.1 2.6----1015.9- 6.3 4.8----
2024-02-27 08:30 am E 1.5 2.1----1016.0- 6.0 4.8----
2024-02-27 08:24 am E 1.5 2.1----1016.1- 5.8 4.8----
2024-02-27 08:18 am E 1.0 1.0----1016.1- 5.7 4.8----
2024-02-27 08:12 amENE 1.0 1.5----1016.1- 5.9 4.8----
2024-02-27 08:06 amENE 1.0 1.5----1016.1- 5.3 4.8----
2024-02-27 08:00 amENE 1.0 1.5----1016.0 +0.0 5.5 4.8----
2024-02-27 07:54 amNNE 1.0 2.1----1016.1- 5.1 4.8----
2024-02-27 07:48 amNNE 1.0 1.5----1016.1- 4.6 4.8----
2024-02-27 07:42 amENE 1.5 2.1----1015.9- 4.5 4.8----
2024-02-27 07:36 am N 0.5 1.5----1015.9- 3.8 4.8----
2024-02-27 07:30 am- 0.0 1.0----1016.0- 3.9 4.8----
2024-02-27 07:24 am- 0.0 0.5----1016.1- 3.6 4.8----
2024-02-27 07:18 am- 0.0 0.5----1016.1- 3.5 4.8----
2024-02-27 07:12 am- 0.0 0.5----1016.2- 3.3 4.8----
2024-02-27 07:06 am- 0.0 0.0----1016.2- 3.4 4.8----
2024-02-27 07:00 am- 0.0 0.0----1016.1 +0.0 3.4 4.8----
2024-02-27 06:54 am- 0.0 0.5----1016.0- 3.3 4.8----
2024-02-27 06:48 amNNW 0.5 1.0----1016.0- 3.3 4.8----
2024-02-27 06:42 am- 0.0 0.5----1016.0- 3.2 4.8----
2024-02-27 06:36 am- 0.0 1.0----1016.0- 3.2 4.8----
2024-02-27 06:30 am NE 0.5 1.0----1016.0- 3.1 4.8----
2024-02-27 06:24 am NE 1.0 1.0----1015.9- 3.0 4.8----
2024-02-27 06:18 am- 0.0 0.5----1016.0- 3.2 4.8----
2024-02-27 06:12 am- 0.0 0.5----1015.9- 3.4 4.8----
2024-02-27 06:06 am- 0.0 0.5----1015.9- 3.5 4.8----
2024-02-27 06:00 amENE 0.5 1.0----1015.8 +0.0 3.5 4.8----
2024-02-27 05:54 am NE 0.5 1.0----1015.8- 3.2 4.8----
2024-02-27 05:48 am NE 0.5 1.0----1015.8- 3.4 4.8----
2024-02-27 05:42 am- 0.0 1.0----1015.9- 3.3 4.8----
2024-02-27 05:36 amENE 1.0 1.0----1015.8- 3.3 4.8----
2024-02-27 05:30 amENE 1.0 1.0----1015.9- 3.2 4.8----
2024-02-27 05:24 am NE 0.5 1.5----1015.8- 3.1 4.8----
2024-02-27 05:18 am NE 1.0 1.5----1015.8- 3.0 4.8----
2024-02-27 05:12 amENE 1.0 1.0----1015.9- 3.0 4.8----
2024-02-27 05:06 am NE 0.5 1.0----1016.0- 3.0 4.8----
2024-02-27 05:00 am- 0.0 0.5----1016.1 +0.0 3.2 4.8----
2024-02-27 04:54 am E 1.0 1.0----1016.0- 3.2 4.8----
2024-02-27 04:48 am E 1.0 1.0----1016.1- 3.3 4.8----
2024-02-27 04:42 amENE 1.0 1.0----1016.1- 3.3 4.8----
2024-02-27 04:36 am- 0.0 0.0----1016.1- 3.2 4.8----
2024-02-27 04:30 am- 0.0 0.5----1016.0- 3.2 4.8----
2024-02-27 04:24 am- 0.0 0.5----1016.0- 3.4 4.8----
2024-02-27 04:18 am N 0.5 0.5----1015.9- 3.4 4.8----
2024-02-27 04:12 am NE 0.5 1.5----1015.9- 3.3 4.8----
2024-02-27 04:06 am NE 1.0 1.5----1015.8- 3.3 4.8----
2024-02-27 04:00 am- 0.0 0.0----1015.9 -0.6 3.5 4.8----
2024-02-27 03:54 am- 0.0 1.0----1015.9- 3.7 4.8----
2024-02-27 03:48 amENE 1.0 1.0----1015.8- 3.6 4.8----
2024-02-27 03:42 am- 0.0 1.0----1015.8- 3.7 4.8----
2024-02-27 03:36 amENE 1.0 1.0----1015.7- 3.6 4.8----
2024-02-27 03:30 am E 1.0 1.0----1015.7- 3.5 4.8----
2024-02-27 03:24 amENE 1.0 1.0----1015.7- 3.6 4.8----
2024-02-27 03:18 am E 1.0 1.5----1015.7- 3.7 4.8----
2024-02-27 03:12 amENE 1.0 1.5----1015.6- 3.6 4.8----
2024-02-27 03:06 amENE 1.0 1.5----1015.7- 3.6 4.8----
2024-02-27 03:00 amENE 1.0 1.5----1015.7 -1.1 3.5 4.8----
2024-02-27 02:54 amENE 0.5 1.0----1015.8- 3.4 4.8----
2024-02-27 02:48 amENE 1.0 1.5----1015.8- 3.3 4.8----
2024-02-27 02:42 am NE 1.0 1.0----1015.9- 3.4 4.8----
2024-02-27 02:36 am NE 0.5 1.0----1016.0- 3.4 4.8----
2024-02-27 02:30 amNNE 1.0 1.0----1016.1- 3.4 4.8----
2024-02-27 02:24 am- 0.0 0.5----1016.1- 3.7 4.8----
2024-02-27 02:18 am- 0.0 0.5----1016.2- 3.8 4.8----
2024-02-27 02:12 am- 0.0 0.0----1016.2- 4.1 4.8----
2024-02-27 02:06 am- 0.0 0.5----1016.1- 4.3 4.8----
2024-02-27 02:00 amESE 0.5 1.0----1016.1 -0.7 4.2 4.8----
2024-02-27 01:54 am E 0.5 1.0----1016.1- 4.0 4.8----
2024-02-27 01:48 am E 1.0 1.0----1016.2- 4.0 4.8----
2024-02-27 01:42 am E 1.0 1.0----1016.2- 3.9 4.8----
2024-02-27 01:36 am E 1.0 1.5----1016.2- 4.0 4.8----
2024-02-27 01:30 amENE 1.0 1.5----1016.3- 4.0 4.8----
2024-02-27 01:24 am E 0.5 1.0----1016.4- 4.3 4.8----
2024-02-27 01:18 am E 1.0 1.0----1016.3- 4.2 4.8----
2024-02-27 01:12 am E 0.5 1.0----1016.4- 4.3 4.8----
2024-02-27 01:06 amESE 0.5 0.5----1016.5- 4.2 4.8----
2024-02-27 01:00 am- 0.0 0.5----1016.5 -0.7 4.2 4.8----
2024-02-27 12:54 am- 0.0 0.5----1016.5- 4.0 4.8----
2024-02-27 12:48 am NE 0.5 1.0----1016.4- 4.1 4.8----
2024-02-27 12:42 amENE 0.5 1.5----1016.5- 4.3 4.7----
2024-02-27 12:36 amESE 1.0 1.5----1016.6- 4.4 4.7----
2024-02-27 12:30 am E 1.5 1.5----1016.6- 4.4 4.7----
2024-02-27 12:24 am E 0.5 1.0----1016.7- 4.4 4.7----
2024-02-27 12:18 amENE 1.0 1.0----1016.6- 4.3 4.7----
2024-02-27 12:12 am E 0.5 1.0----1016.7- 4.4 4.7----
2024-02-27 12:06 am- 0.0 0.0----1016.8- 4.6 4.7----
2024-02-27 12:00 am- 0.0 0.5----1016.8 +0.0 4.6 4.7----
2024-02-26 11:54 pm- 0.0 0.0----1016.7- 4.8 4.7----
2024-02-26 11:48 pm- 0.0 0.5----1016.7- 4.8 4.7----
2024-02-26 11:42 pm- 0.0 0.0----1016.8- 5.5 4.7----
2024-02-26 11:36 pm- 0.0 0.0----1016.8- 5.8 4.8----
2024-02-26 11:30 pm- 0.0 0.0----1016.9- 5.8 4.8----
2024-02-26 11:24 pm- 0.0 0.0----1016.9- 6.4 4.8----
2024-02-26 11:18 pm- 0.0 0.5----1016.9- 6.7 4.8----
2024-02-26 11:12 pm- 0.0 0.5----1016.9- 6.0 4.8----
2024-02-26 11:06 pm- 0.0 0.5----1016.9- 5.4 4.8----
2024-02-26 11:00 pm- 0.0 0.5----1016.8 +0.3 5.4 4.8----
2024-02-26 10:54 pm- 0.0 0.0----1016.9- 5.4 4.8----
2024-02-26 10:48 pm- 0.0 0.0----1017.0- 5.5 4.8----
2024-02-26 10:42 pm- 0.0 0.0----1017.0- 5.6 4.8----
2024-02-26 10:36 pm- 0.0 0.0----1017.0- 5.8 4.8----
2024-02-26 10:30 pm- 0.0 0.0----1017.0- 6.0 4.8----
2024-02-26 10:24 pm- 0.0 0.0----1017.1- 6.4 4.8----
2024-02-26 10:18 pm- 0.0 0.0----1017.1- 6.9 4.8----
2024-02-26 10:12 pm- 0.0 0.0----1017.1- 7.3 4.8----
2024-02-26 10:06 pm- 0.0 0.5----1017.2- 8.0 4.8----
2024-02-26 10:00 pm- 0.0 0.5----1017.2- 8.0 4.8----
2024-02-26 09:54 pm- 0.0 0.0----1017.2- 8.3 4.8----
2024-02-26 09:48 pm- 0.0 0.5----1017.1- 8.3 4.8----
2024-02-26 09:42 pm- 0.0 0.5----1017.1- 8.4 4.8----
2024-02-26 09:36 pm- 0.0 0.0----1017.1-------
2024-02-26 09:30 pm- 0.0 0.5----1017.1-------
2024-02-26 09:24 pm- 0.0 0.0----1017.2-------
2024-02-26 09:18 pm- 0.0 0.5----1017.2-------
2024-02-26 09:12 pm- 0.0 1.0----1017.1-------
2024-02-26 09:06 pmWSW 1.5 3.1----1017.0-------
2024-02-26 09:00 pm SW 1.5 2.6----1016.9 +1.3------
2024-02-26 08:54 pmWSW 1.0 2.1----1016.9-------
2024-02-26 08:48 pmWSW 0.5 2.1----1017.0-------
2024-02-26 08:42 pmWSW 1.0 2.1----1017.0-------
2024-02-26 08:36 pmWSW 0.5 1.5----1016.9-------
2024-02-26 08:30 pmWSW 1.0 2.1----1016.9-------
2024-02-26 08:24 pm- 0.0 1.0----1016.8-------
2024-02-26 08:18 pmWSW 1.0 2.6----1016.7-------
2024-02-26 08:12 pm SW 1.0 2.1----1016.7-------
2024-02-26 08:06 pmWSW 0.5 2.1----1016.6-------
2024-02-26 08:00 pm- 0.0 0.5----1016.5 +1.2------
2024-02-26 07:54 pm- 0.0 0.5----1016.4-------
2024-02-26 07:48 pm- 0.0 1.0----1016.3-------
2024-02-26 07:42 pm W 0.5 1.0----1016.2-------
2024-02-26 07:36 pmWNW 0.5 1.0------ 10.5 4.8----
2024-02-26 07:30 pmWNW 0.5 1.0------ 10.6 4.8----
2024-02-26 07:24 pmNNW 0.5 1.0------ 10.7 4.8----
2024-02-26 07:18 pmNNW 0.5 0.5------ 10.4 4.8----
2024-02-26 07:12 pm NW 0.5 0.5------ 9.3 4.8----
2024-02-26 07:06 pm W 1.0 1.5------ 9.6 4.8----
2024-02-26 07:00 pm- 0.0 0.5------ 8.7 4.8----
2024-02-26 06:54 pm- 0.0 0.5------ 8.8 4.8----
2024-02-26 06:48 pm- 0.0 0.5------ 9.2 4.8----
2024-02-26 06:42 pmWNW 0.5 0.5------ 9.9 4.8----
2024-02-26 06:36 pm- 0.0 0.5----1015.9- 8.3 4.8----
2024-02-26 06:30 pm- 0.0 0.5----1015.9- 8.3 4.8----
2024-02-26 06:24 pm- 0.0 0.5----1015.9- 9.7 4.8----
2024-02-26 06:18 pm- 0.0 0.0----1015.9- 9.5 4.7----
2024-02-26 06:12 pm- 0.0 0.0----1015.7- 10.0 4.7----
2024-02-26 06:06 pm- 0.0 0.0----1015.7- 10.6 4.7----
2024-02-26 06:00 pm- 0.0 0.0----1015.6 +0.4 10.8 4.7----
2024-02-26 05:54 pm- 0.0 0.0----1015.5- 11.3 4.7----
2024-02-26 05:48 pm- 0.0 0.0----1015.5- 11.3 4.7----
2024-02-26 05:42 pm- 0.0 0.5----1015.4- 11.3 4.7----
2024-02-26 05:36 pm- 0.0 0.5----1015.4- 12.2 4.7----
2024-02-26 05:30 pm- 0.0 0.0----1015.3- 13.0 4.7----
2024-02-26 05:24 pm- 0.0 0.5----1015.3- 12.8 4.7----
2024-02-26 05:18 pm W 0.5 1.0----1015.3- 12.4 4.7----
2024-02-26 05:12 pm W 0.5 1.0----1015.3- 12.4 4.7----
2024-02-26 05:06 pm W 1.0 1.5----1015.3- 12.4 4.7----
2024-02-26 05:00 pm W 1.0 1.5----1015.3 -0.6 12.3 4.7----
2024-02-26 04:54 pm W 1.0 1.0----1015.3- 13.0 4.7----